Time,TemperatureF,DewpointF,PressureIn,WindDirection,WindDirectionDegrees,WindSpeedMPH,WindSpeedGustMPH,Humidity,HourlyPrecipIn,Conditions,Clouds,dailyrainin,SolarRadiationWatts/m^2,SoftwareType,DateUTC
2013-10-02 00:14:00,43.6,35.0,30.40,NNE,27,6.0,8.0,71,0.00,,,0.00,0,weatherlink.com 1.10,2013-10-02 06:14:00,
2013-10-02 00:29:00,43.3,34.0,30.40,ENE,75,4.0,12.0,70,0.00,,,0.00,0,weatherlink.com 1.10,2013-10-02 06:29:00,
2013-10-02 00:44:00,43.8,34.0,30.41,NNE,17,8.0,12.0,69,0.00,,,0.00,0,weatherlink.com 1.10,2013-10-02 06:44:00,
2013-10-02 00:59:00,43.7,34.0,30.41,NE,52,6.0,10.0,69,0.00,,,0.00,0,weatherlink.com 1.10,2013-10-02 06:59:00,
2013-10-02 01:14:00,43.8,34.0,30.41,NE,47,8.0,9.0,68,0.00,,,0.00,0,weatherlink.com 1.10,2013-10-02 07:14:00,
2013-10-02 01:29:00,43.1,33.0,30.42,North,10,9.0,12.0,68,0.00,,,0.00,0,weatherlink.com 1.10,2013-10-02 07:29:00,
2013-10-02 01:44:00,42.7,33.0,30.43,NNE,13,16.0,18.0,69,0.00,,,0.00,0,weatherlink.com 1.10,2013-10-02 07:44:00,
2013-10-02 02:00:00,41.8,33.0,30.43,North,360,8.0,14.0,71,0.00,,,0.00,0,weatherlink.com 1.10,2013-10-02 08:00:00,
2013-10-02 02:15:00,41.8,32.0,30.43,North,355,12.0,18.0,68,0.00,,,0.00,0,weatherlink.com 1.10,2013-10-02 08:15:00,
2013-10-02 02:30:00,41.6,32.0,30.44,North,355,13.0,14.0,70,0.00,,,0.00,0,weatherlink.com 1.10,2013-10-02 08:30:00,
2013-10-02 02:45:00,41.4,33.0,30.44,North,350,11.0,14.0,71,0.00,,,0.00,0,weatherlink.com 1.10,2013-10-02 08:45:00,
2013-10-02 03:00:00,41.7,32.0,30.44,North,350,13.0,17.0,69,0.00,,,0.00,0,weatherlink.com 1.10,2013-10-02 09:00:00,
2013-10-02 03:15:00,41.3,32.0,30.45,NNW,336,6.0,12.0,70,0.00,,,0.00,0,weatherlink.com 1.10,2013-10-02 09:15:00,
2013-10-02 03:30:00,41.2,32.0,30.46,NNE,22,6.0,8.0,70,0.00,,,0.00,0,weatherlink.com 1.10,2013-10-02 09:30:00,
2013-10-02 03:45:00,41.0,32.0,30.46,North,5,3.0,12.0,69,0.00,,,0.00,0,weatherlink.com 1.10,2013-10-02 09:45:00,
2013-10-02 04:00:00,40.7,31.0,30.45,ENE,60,8.0,12.0,69,0.00,,,0.00,0,weatherlink.com 1.10,2013-10-02 10:00:00,
2013-10-02 04:15:00,40.4,31.0,30.46,NE,46,5.0,8.0,69,0.00,,,0.00,0,weatherlink.com 1.10,2013-10-02 10:15:00,
2013-10-02 04:30:00,40.4,31.0,30.46,NE,50,9.0,10.0,69,0.00,,,0.00,0,weatherlink.com 1.10,2013-10-02 10:30:00,
2013-10-02 04:45:00,40.3,30.0,30.46,NE,52,9.0,13.0,68,0.00,,,0.00,0,weatherlink.com 1.10,2013-10-02 10:45:00,
2013-10-02 05:00:00,40.1,31.0,30.47,ENE,57,14.0,14.0,69,0.00,,,0.00,0,weatherlink.com 1.10,2013-10-02 11:00:00,
2013-10-02 05:15:00,39.9,30.0,30.47,NE,51,8.0,12.0,68,0.00,,,0.00,0,weatherlink.com 1.10,2013-10-02 11:15:00,
2013-10-02 05:30:00,40.0,30.0,30.47,NNE,29,7.0,12.0,67,0.00,,,0.00,0,weatherlink.com 1.10,2013-10-02 11:30:00,
2013-10-02 05:45:00,39.2,30.0,30.47,NNE,32,1.0,9.0,69,0.00,,,0.00,0,weatherlink.com 1.10,2013-10-02 11:45:00,
2013-10-02 06:00:00,38.6,30.0,30.48,NNE,24,0.0,5.0,70,0.00,,,0.00,0,weatherlink.com 1.10,2013-10-02 12:00:00,
2013-10-02 06:15:00,37.7,31.0,30.48,WSW,256,3.0,4.0,77,0.00,,,0.00,0,weatherlink.com 1.10,2013-10-02 12:15:00,
2013-10-02 06:30:00,37.4,31.0,30.47,WSW,248,0.0,0.0,77,0.00,,,0.00,0,weatherlink.com 1.10,2013-10-02 12:30:00,
2013-10-02 06:45:00,38.4,29.0,30.47,ENE,72,2.0,7.0,68,0.00,,,0.00,0,weatherlink.com 1.10,2013-10-02 12:45:00,
2013-10-02 07:00:00,38.8,29.0,30.48,NE,46,2.0,5.0,67,0.00,,,0.00,0,weatherlink.com 1.10,2013-10-02 13:00:00,
2013-10-02 07:15:00,38.4,29.0,30.47,NE,51,2.0,4.0,68,0.00,,,0.00,0,weatherlink.com 1.10,2013-10-02 13:15:00,
2013-10-02 07:30:00,38.2,28.0,30.48,East,101,0.0,3.0,67,0.00,,,0.00,0,weatherlink.com 1.10,2013-10-02 13:30:00,
2013-10-02 07:45:00,37.4,29.0,30.48,ESE,113,0.0,0.0,73,0.00,,,0.00,7,weatherlink.com 1.10,2013-10-02 13:45:00,
2013-10-02 08:00:00,36.9,29.0,30.49,ENE,61,1.0,4.0,73,0.00,,,0.00,12,weatherlink.com 1.10,2013-10-02 14:00:00,
2013-10-02 08:15:00,36.9,28.0,30.49,NE,40,3.0,6.0,71,0.00,,,0.00,18,weatherlink.com 1.10,2013-10-02 14:15:00,
2013-10-02 08:30:00,36.8,29.0,30.49,NE,36,0.0,5.0,74,0.00,,,0.00,88,weatherlink.com 1.10,2013-10-02 14:30:00,
2013-10-02 08:45:00,36.5,29.0,30.49,NE,36,0.0,0.0,75,0.00,,,0.00,134,weatherlink.com 1.10,2013-10-02 14:45:00,
2013-10-02 09:00:00,36.4,30.0,30.49,SSE,156,0.0,0.0,76,0.00,,,0.00,186,weatherlink.com 1.10,2013-10-02 15:00:00,
2013-10-02 09:15:00,37.0,30.0,30.49,South,190,0.0,3.0,75,0.00,,,0.00,239,weatherlink.com 1.10,2013-10-02 15:15:00,
2013-10-02 09:31:00,38.2,31.0,30.49,SSW,192,0.0,2.0,74,0.00,,,0.00,279,weatherlink.com 1.10,2013-10-02 15:31:00,
2013-10-02 09:46:00,38.5,31.0,30.48,SSW,192,0.0,0.0,74,0.00,,,0.00,323,weatherlink.com 1.10,2013-10-02 15:46:00,
2013-10-02 10:01:00,38.9,32.0,30.48,SSW,192,2.0,3.0,75,0.00,,,0.00,362,weatherlink.com 1.10,2013-10-02 16:01:00,
2013-10-02 10:16:00,38.8,32.0,30.48,South,190,4.0,7.0,77,0.00,,,0.00,399,weatherlink.com 1.10,2013-10-02 16:16:00,
2013-10-02 10:31:00,39.6,33.0,30.48,SSW,207,4.0,8.0,76,0.00,,,0.00,434,weatherlink.com 1.10,2013-10-02 16:31:00,
2013-10-02 10:46:00,41.0,33.0,30.47,SSW,211,3.0,9.0,72,0.00,,,0.00,471,weatherlink.com 1.10,2013-10-02 16:46:00,
2013-10-02 11:01:00,41.6,32.0,30.46,SW,221,5.0,10.0,70,0.00,,,0.00,506,weatherlink.com 1.10,2013-10-02 17:01:00,
2013-10-02 11:16:00,41.9,32.0,30.46,SW,226,5.0,10.0,69,0.00,,,0.00,538,weatherlink.com 1.10,2013-10-02 17:16:00,
2013-10-02 11:31:00,42.6,32.0,30.45,SW,225,5.0,10.0,67,0.00,,,0.00,568,weatherlink.com 1.10,2013-10-02 17:31:00,
2013-10-02 11:46:00,43.6,31.0,30.44,SSW,202,6.0,10.0,61,0.00,,,0.00,599,weatherlink.com 1.10,2013-10-02 17:46:00,
2013-10-02 12:01:00,44.4,30.0,30.43,SSW,213,5.0,11.0,57,0.00,,,0.00,631,weatherlink.com 1.10,2013-10-02 18:01:00,
2013-10-02 12:16:00,45.3,28.0,30.42,South,190,4.0,9.0,51,0.00,,,0.00,638,weatherlink.com 1.10,2013-10-02 18:16:00,
2013-10-02 12:31:00,45.4,26.0,30.41,SW,232,10.0,17.0,47,0.00,,,0.00,656,weatherlink.com 1.10,2013-10-02 18:31:00,
2013-10-02 12:46:00,46.0,26.0,30.40,WSW,249,4.0,13.0,45,0.00,,,0.00,694,weatherlink.com 1.10,2013-10-02 18:46:00,
2013-10-02 13:01:00,46.6,26.0,30.39,South,185,2.0,13.0,44,0.00,,,0.00,663,weatherlink.com 1.10,2013-10-02 19:01:00,
2013-10-02 13:16:00,46.9,26.0,30.38,SW,229,6.0,6.0,44,0.00,,,0.00,673,weatherlink.com 1.10,2013-10-02 19:16:00,
2013-10-02 13:31:00,47.3,26.0,30.37,SSW,197,2.0,7.0,44,0.00,,,0.00,677,weatherlink.com 1.10,2013-10-02 19:31:00,
2013-10-02 13:47:00,48.4,26.0,30.36,NNW,335,0.0,10.0,42,0.00,,,0.00,645,weatherlink.com 1.10,2013-10-02 19:47:00,
2013-10-02 14:02:00,48.6,26.0,30.35,NW,323,8.0,10.0,42,0.00,,,0.00,656,weatherlink.com 1.10,2013-10-02 20:02:00,
2013-10-02 14:17:00,48.7,27.0,30.34,NNW,347,3.0,8.0,44,0.00,,,0.00,657,weatherlink.com 1.10,2013-10-02 20:17:00,
2013-10-02 14:32:00,48.5,28.0,30.33,NW,313,9.0,12.0,46,0.00,,,0.00,687,weatherlink.com 1.10,2013-10-02 20:32:00,
2013-10-02 14:47:00,49.1,29.0,30.33,NNW,339,8.0,13.0,46,0.00,,,0.00,642,weatherlink.com 1.10,2013-10-02 20:47:00,
2013-10-02 15:02:00,49.0,30.0,30.32,WNW,288,11.0,15.0,48,0.00,,,0.00,613,weatherlink.com 1.10,2013-10-02 21:02:00,
2013-10-02 15:17:00,49.8,28.0,30.31,NNW,333,10.0,14.0,44,0.00,,,0.00,501,weatherlink.com 1.10,2013-10-02 21:17:00,
2013-10-02 15:32:00,49.6,28.0,30.30,NNW,331,12.0,15.0,43,0.00,,,0.00,452,weatherlink.com 1.10,2013-10-02 21:32:00,
2013-10-02 15:47:00,49.7,28.0,30.30,NNW,328,11.0,15.0,44,0.00,,,0.00,422,weatherlink.com 1.10,2013-10-02 21:47:00,
2013-10-02 16:02:00,50.0,28.0,30.29,NNW,338,17.0,20.0,42,0.00,,,0.00,483,weatherlink.com 1.10,2013-10-02 22:02:00,
2013-10-02 16:17:00,49.9,27.0,30.28,North,350,16.0,19.0,42,0.00,,,0.00,371,weatherlink.com 1.10,2013-10-02 22:17:00,
2013-10-02 16:32:00,50.7,29.0,30.27,North,5,14.0,20.0,43,0.00,,,0.00,322,weatherlink.com 1.10,2013-10-02 22:32:00,
2013-10-02 16:47:00,49.7,28.0,30.27,North,355,17.0,20.0,43,0.00,,,0.00,169,weatherlink.com 1.10,2013-10-02 22:47:00,
2013-10-02 17:02:00,50.3,28.0,30.27,North,350,14.0,18.0,42,0.00,,,0.00,183,weatherlink.com 1.10,2013-10-02 23:02:00,
2013-10-02 17:17:00,49.7,29.0,30.27,North,360,17.0,19.0,45,0.00,,,0.00,141,weatherlink.com 1.10,2013-10-02 23:17:00,
2013-10-02 17:32:00,49.4,29.0,30.27,North,355,18.0,21.0,45,0.00,,,0.00,127,weatherlink.com 1.10,2013-10-02 23:32:00,
2013-10-02 17:47:00,49.2,28.0,30.27,North,355,16.0,20.0,44,0.00,,,0.00,91,weatherlink.com 1.10,2013-10-02 23:47:00,
2013-10-02 18:02:00,49.1,28.0,30.26,NNW,348,14.0,16.0,45,0.00,,,0.00,72,weatherlink.com 1.10,2013-10-03 00:02:00,
2013-10-02 18:17:00,49.1,29.0,30.27,North,355,16.0,19.0,47,0.00,,,0.00,62,weatherlink.com 1.10,2013-10-03 00:17:00,
2013-10-02 18:32:00,48.8,30.0,30.27,NNE,12,18.0,22.0,48,0.00,,,0.00,49,weatherlink.com 1.10,2013-10-03 00:32:00,
2013-10-02 18:47:00,48.3,30.0,30.27,North,9,18.0,21.0,49,0.00,,,0.00,30,weatherlink.com 1.10,2013-10-03 00:47:00,
2013-10-02 19:02:00,47.4,30.0,30.27,North,10,13.0,19.0,52,0.00,,,0.00,9,weatherlink.com 1.10,2013-10-03 01:02:00,
2013-10-02 19:17:00,46.7,30.0,30.27,North,5,18.0,22.0,53,0.00,,,0.00,0,weatherlink.com 1.10,2013-10-03 01:17:00,
2013-10-02 19:32:00,46.1,30.0,30.27,NNE,26,17.0,20.0,54,0.00,,,0.00,0,weatherlink.com 1.10,2013-10-03 01:32:00,
2013-10-02 19:47:00,45.6,30.0,30.27,NNE,19,19.0,25.0,55,0.00,,,0.00,0,weatherlink.com 1.10,2013-10-03 01:47:00,
2013-10-02 20:02:00,45.1,30.0,30.27,NNE,22,18.0,22.0,56,0.00,,,0.00,0,weatherlink.com 1.10,2013-10-03 02:02:00,
2013-10-02 20:17:00,45.0,30.0,30.27,NNE,29,18.0,23.0,55,0.00,,,0.00,0,weatherlink.com 1.10,2013-10-03 02:17:00,
2013-10-02 20:32:00,44.9,29.0,30.27,North,11,20.0,24.0,54,0.00,,,0.00,0,weatherlink.com 1.10,2013-10-03 02:32:00,
2013-10-02 20:47:00,44.9,28.0,30.27,NE,35,16.0,29.0,52,0.00,,,0.00,0,weatherlink.com 1.10,2013-10-03 02:47:00,
2013-10-02 21:02:00,44.7,28.0,30.27,NNE,22,23.0,27.0,52,0.00,,,0.00,0,weatherlink.com 1.10,2013-10-03 03:02:00,
2013-10-02 21:17:00,44.5,28.0,30.27,NNE,19,21.0,27.0,52,0.00,,,0.00,0,weatherlink.com 1.10,2013-10-03 03:17:00,
2013-10-02 21:32:00,44.4,28.0,30.27,NNE,25,21.0,26.0,52,0.00,,,0.00,0,weatherlink.com 1.10,2013-10-03 03:32:00,
2013-10-02 21:47:00,44.2,28.0,30.28,NNE,20,20.0,27.0,53,0.00,,,0.00,0,weatherlink.com 1.10,2013-10-03 03:47:00,
2013-10-02 22:02:00,44.0,28.0,30.27,NNE,26,20.0,23.0,54,0.00,,,0.00,0,weatherlink.com 1.10,2013-10-03 04:02:00,
2013-10-02 22:17:00,43.6,29.0,30.27,NNE,22,26.0,28.0,57,0.00,,,0.00,0,weatherlink.com 1.10,2013-10-03 04:17:00,
2013-10-02 22:32:00,43.6,29.0,30.27,NNE,24,21.0,26.0,57,0.00,,,0.00,0,weatherlink.com 1.10,2013-10-03 04:32:00,
2013-10-02 22:47:00,43.5,29.0,30.27,NNE,26,21.0,27.0,58,0.00,,,0.00,0,weatherlink.com 1.10,2013-10-03 04:47:00,
2013-10-02 23:02:00,43.4,29.0,30.27,North,11,19.0,25.0,58,0.00,,,0.00,0,weatherlink.com 1.10,2013-10-03 05:02:00,
2013-10-02 23:17:00,43.4,29.0,30.26,NNE,15,21.0,25.0,58,0.00,,,0.00,0,weatherlink.com 1.10,2013-10-03 05:17:00,
2013-10-02 23:32:00,43.5,29.0,30.26,NNE,22,24.0,26.0,58,0.00,,,0.00,0,weatherlink.com 1.10,2013-10-03 05:32:00,
2013-10-02 23:47:00,43.2,30.0,30.26,NNE,15,15.0,22.0,59,0.00,,,0.00,0,weatherlink.com 1.10,2013-10-03 05:47:00,